| time (UTC) | temp C | wind direction | speed KPH | gust KPH | rain 1hr cm | rain 24hr cm | rain mn cm | humidity % | barometer mb |
| 20260507023650 | 17 | 277 | 0.0 | 0.0 | 0.00 | 0.00 | 0.00 | 70 | 1037.5 |
| 20260507023148 | 17 | 277 | 0.0 | 0.0 | 0.00 | 0.00 | 0.00 | 70 | 1037.5 |
| 20260507022645 | 17 | 4 | 0.0 | 0.0 | 0.00 | 0.00 | 0.00 | 69 | 1037.5 |
| 20260507022140 | 17 | 276 | 0.0 | 0.0 | 0.00 | 0.00 | 0.00 | 69 | 1037.1 |
| 20260507021637 | 17 | 291 | 0.0 | 0.0 | 0.00 | 0.00 | 0.00 | 68 | 1037.5 |
| 20260507021132 | 17 | 273 | 0.0 | 0.0 | 0.00 | 0.00 | 0.00 | 68 | 1037.1 |
| 20260507020631 | 17 | 273 | 0.0 | 0.0 | 0.00 | 0.00 | 0.00 | 68 | 1037.1 |
| 20260507020127 | 17 | 272 | 0.0 | 0.0 | 0.00 | 0.00 | 0.00 | 68 | 1037.1 |
| 20260507015626 | 17 | 275 | 0.0 | 0.0 | 0.00 | 0.00 | 0.00 | 66 | 1037.1 |
| 20260507015122 | 18 | 277 | 0.0 | 0.0 | 0.00 | 0.00 | 0.00 | 66 | 1037.1 |
| 20260507014619 | 18 | 277 | 0.0 | 0.0 | 0.00 | 0.00 | 0.00 | 64 | 1037.1 |
| 20260507014115 | 18 | 293 | 0.0 | 0.0 | 0.00 | 0.00 | 0.00 | 63 | 1037.1 |
| 20260507013612 | 18 | 277 | 0.0 | 0.0 | 0.00 | 0.00 | 0.00 | 63 | 1037.1 |
| 20260507013109 | 18 | 288 | 0.0 | 0.0 | 0.00 | 0.00 | 0.00 | 62 | 1037.1 |
| 20260507012606 | 18 | 303 | 0.0 | 0.0 | 0.00 | 0.00 | 0.00 | 61 | 1037.1 |
| 20260507012101 | 18 | 285 | 0.0 | 0.0 | 0.00 | 0.00 | 0.00 | 62 | 1037.1 |
| 20260507011600 | 18 | 276 | 0.0 | 0.0 | 0.00 | 0.00 | 0.00 | 62 | 1037.1 |
| 20260507011055 | 18 | 276 | 0.0 | 0.0 | 0.00 | 0.00 | 0.00 | 62 | 1036.8 |
| 20260507010550 | 19 | 275 | 0.0 | 0.0 | 0.00 | 0.00 | 0.00 | 62 | 1037.1 |
| 20260507010047 | 19 | 273 | 0.0 | 0.0 | 0.00 | 0.00 | 0.00 | 61 | 1036.8 |
| 20260507005544 | 19 | 274 | 0.0 | 0.0 | 0.00 | 0.00 | 0.00 | 61 | 1036.8 |
| 20260507005040 | 19 | 276 | 0.0 | 0.0 | 0.00 | 0.00 | 0.00 | 62 | 1036.8 |
| 20260507004538 | 20 | 274 | 0.0 | 0.0 | 0.00 | 0.00 | 0.00 | 62 | 1036.8 |
| 20260507004035 | 20 | 273 | 0.0 | 0.0 | 0.00 | 0.00 | 0.00 | 61 | 1036.8 |
| 20260507003531 | 20 | 274 | 0.0 | 0.0 | 0.00 | 0.00 | 0.00 | 60 | 1036.8 |
| 20260507003026 | 20 | 277 | 0.0 | 0.0 | 0.00 | 0.00 | 0.00 | 60 | 1036.8 |
| 20260507002523 | 20 | 276 | 0.0 | 0.0 | 0.00 | 0.00 | 0.00 | 59 | 1036.8 |
| 20260507002019 | 20 | 306 | 0.0 | 0.0 | 0.00 | 0.00 | 0.00 | 58 | 1036.8 |
| 20260507001515 | 20 | 274 | 0.0 | 0.0 | 0.00 | 0.00 | 0.00 | 60 | 1036.8 |
| 20260507001013 | 20 | 275 | 0.0 | 0.0 | 0.00 | 0.00 | 0.00 | 60 | 1036.8 |
| 20260507000509 | 20 | 276 | 0.0 | 0.0 | 0.00 | 0.00 | 0.00 | 59 | 1036.8 |
| 20260507000005 | 20 | 280 | 0.0 | 0.0 | 0.00 | 0.00 | 0.00 | 59 | 1036.8 |
| 20260506235502 | 20 | 280 | 0.0 | 0.0 | 0.00 | 0.00 | 0.00 | 58 | 1036.8 |
| 20260506234958 | 21 | 275 | 0.0 | 0.0 | 0.00 | 0.00 | 0.00 | 58 | 1036.4 |
| 20260506234455 | 21 | 274 | 0.0 | 0.0 | 0.00 | 0.00 | 0.00 | 58 | 1036.8 |
| 20260506233952 | 21 | 276 | 0.0 | 0.0 | 0.00 | 0.00 | 0.00 | 56 | 1036.8 |
| 20260506233448 | 20 | 287 | 0.0 | 0.0 | 0.00 | 0.00 | 0.00 | 57 | 1036.8 |
| 20260506232940 | 21 | 278 | 0.0 | 0.0 | 0.00 | 0.00 | 0.00 | 56 | 1037.1 |
| 20260506232436 | 21 | 274 | 0.0 | 0.0 | 0.00 | 0.00 | 0.00 | 56 | 1036.8 |
| 20260506231932 | 21 | 273 | 0.0 | 0.0 | 0.00 | 0.00 | 0.00 | 56 | 1037.1 |
| 20260506231430 | 21 | 277 | 0.0 | 0.0 | 0.00 | 0.00 | 0.00 | 57 | 1036.8 |
| 20260506230926 | 21 | 283 | 0.0 | 0.0 | 0.00 | 0.00 | 0.00 | 56 | 1036.8 |
| 20260506230423 | 21 | 274 | 0.0 | 0.0 | 0.00 | 0.00 | 0.00 | 56 | 1036.8 |
| 20260506225919 | 21 | 279 | 0.0 | 0.0 | 0.00 | 0.00 | 0.00 | 56 | 1036.8 |
| 20260506225416 | 21 | 275 | 0.0 | 0.0 | 0.00 | 0.00 | 0.00 | 56 | 1036.8 |
| 20260506224908 | 22 | 272 | 0.0 | 0.0 | 0.00 | 0.00 | 0.00 | 55 | 1037.1 |
| 20260506224405 | 22 | 276 | 0.0 | 0.0 | 0.00 | 0.00 | 0.00 | 56 | 1037.1 |
| 20260506223901 | 22 | 276 | 0.0 | 0.0 | 0.00 | 0.00 | 0.00 | 55 | 1037.1 |
| 20260506223357 | 22 | 300 | 0.0 | 0.0 | 0.00 | 0.00 | 0.00 | 56 | 1037.1 |
| 20260506222854 | 22 | 276 | 0.0 | 0.0 | 0.00 | 0.00 | 0.00 | 54 | 1037.5 |
| 20260506222350 | 22 | 276 | 0.0 | 0.0 | 0.00 | 0.00 | 0.00 | 55 | 1037.5 |
| 20260506221848 | 22 | 276 | 0.0 | 0.0 | 0.00 | 0.00 | 0.00 | 54 | 1037.5 |
| 20260506221345 | 22 | 317 | 0.0 | 0.0 | 0.00 | 0.00 | 0.00 | 53 | 1037.5 |
| 20260506220842 | 22 | 276 | 0.0 | 0.0 | 0.00 | 0.00 | 0.00 | 55 | 1037.5 |
| 20260506220338 | 22 | 286 | 0.0 | 0.0 | 0.00 | 0.00 | 0.00 | 53 | 1037.5 |
| 20260506215835 | 23 | 281 | 0.0 | 0.0 | 0.00 | 0.00 | 0.00 | 53 | 1037.5 |
| 20260506215330 | 23 | 277 | 0.0 | 0.0 | 0.00 | 0.00 | 0.00 | 53 | 1037.8 |
| 20260506214821 | 23 | 280 | 0.0 | 0.0 | 0.00 | 0.00 | 0.00 | 53 | 1037.5 |
| 20260506214317 | 23 | 282 | 0.0 | 0.0 | 0.00 | 0.00 | 0.00 | 54 | 1037.5 |
| 20260506213816 | 23 | 281 | 0.0 | 0.0 | 0.00 | 0.00 | 0.00 | 55 | 1037.8 |
| 20260506213313 | 23 | 279 | 0.0 | 0.0 | 0.00 | 0.00 | 0.00 | 53 | 1037.8 |
| 20260506212810 | 23 | 281 | 0.0 | 0.0 | 0.00 | 0.00 | 0.00 | 53 | 1037.8 |
| 20260506212307 | 23 | 281 | 0.0 | 0.0 | 0.00 | 0.00 | 0.00 | 52 | 1037.5 |
| 20260506211801 | 23 | 281 | 0.0 | 0.0 | 0.00 | 0.00 | 0.00 | 52 | 1037.8 |
| 20260506211257 | 23 | 278 | 0.0 | 0.0 | 0.00 | 0.00 | 0.00 | 52 | 1038.1 |
| 20260506210755 | 23 | 279 | 0.0 | 0.0 | 0.00 | 0.00 | 0.00 | 52 | 1038.1 |
| 20260506210251 | 24 | 278 | 0.0 | 0.0 | 0.00 | 0.00 | 0.00 | 49 | 1038.1 |
| 20260506205748 | 23 | 278 | 0.0 | 0.0 | 0.00 | 0.00 | 0.00 | 52 | 1038.1 |
| 20260506205244 | 24 | 285 | 0.0 | 0.0 | 0.00 | 0.00 | 0.00 | 51 | 1038.1 |
| 20260506204741 | 24 | 285 | 0.0 | 0.0 | 0.00 | 0.00 | 0.00 | 50 | 1038.1 |
| 20260506204239 | 25 | 285 | 0.0 | 0.0 | 0.00 | 0.00 | 0.00 | 50 | 1038.1 |
| 20260506203736 | 24 | 285 | 0.0 | 0.0 | 0.00 | 0.00 | 0.00 | 52 | 1038.1 |
| 20260506203233 | 25 | 283 | 0.0 | 0.0 | 0.00 | 0.00 | 0.00 | 51 | 1038.1 |
| 20260506202731 | 24 | 289 | 0.0 | 0.0 | 0.00 | 0.00 | 0.00 | 51 | 1038.1 |
| 20260506202227 | 24 | 283 | 0.0 | 0.0 | 0.00 | 0.00 | 0.00 | 51 | 1038.5 |
| 20260506201724 | 24 | 286 | 0.0 | 0.0 | 0.00 | 0.00 | 0.00 | 52 | 1038.5 |
| 20260506201220 | 23 | 283 | 0.0 | 0.0 | 0.00 | 0.00 | 0.00 | 54 | 1038.5 |
| 20260506200717 | 23 | 283 | 0.0 | 0.0 | 0.00 | 0.00 | 0.00 | 52 | 1038.5 |
| 20260506200208 | 23 | 280 | 0.0 | 0.0 | 0.00 | 0.00 | 0.00 | 55 | 1038.5 |
| 20260506195704 | 23 | 308 | 0.0 | 0.0 | 0.00 | 0.00 | 0.00 | 52 | 1038.5 |
| 20260506195200 | 24 | 286 | 0.0 | 0.0 | 0.00 | 0.00 | 0.00 | 52 | 1038.8 |
| 20260506194653 | 23 | 279 | 0.0 | 1.6 | 0.00 | 0.00 | 0.00 | 52 | 1038.8 |
| 20260506194149 | 24 | 277 | 0.0 | 0.0 | 0.00 | 0.00 | 0.00 | 52 | 1038.8 |
| 20260506193647 | 23 | 278 | 0.0 | 0.0 | 0.00 | 0.00 | 0.00 | 51 | 1038.8 |
| 20260506193144 | 23 | 283 | 0.0 | 0.0 | 0.00 | 0.00 | 0.00 | 51 | 1039.2 |
| 20260506192640 | 23 | 280 | 0.0 | 0.0 | 0.00 | 0.00 | 0.00 | 48 | 1039.2 |
| 20260506192136 | 23 | 279 | 0.0 | 0.0 | 0.00 | 0.00 | 0.00 | 49 | 1038.8 |
| 20260506191634 | 24 | 277 | 0.0 | 0.0 | 0.00 | 0.00 | 0.00 | 47 | 1039.2 |
| 20260506191130 | 25 | 276 | 0.0 | 0.0 | 0.00 | 0.00 | 0.00 | 45 | 1039.2 |
| 20260506190627 | 24 | 276 | 0.0 | 0.0 | 0.00 | 0.00 | 0.00 | 48 | 1039.2 |
| 20260506190124 | 23 | 278 | 0.0 | 0.0 | 0.00 | 0.00 | 0.00 | 49 | 1039.2 |
| 20260506185621 | 23 | 273 | 0.0 | 0.0 | 0.00 | 0.00 | 0.00 | 50 | 1039.5 |
| 20260506185117 | 23 | 282 | 0.0 | 0.0 | 0.00 | 0.00 | 0.00 | 49 | 1039.5 |
| 20260506184614 | 23 | 280 | 0.0 | 0.0 | 0.00 | 0.00 | 0.00 | 50 | 1039.2 |
| 20260506184112 | 23 | 278 | 0.0 | 0.0 | 0.00 | 0.00 | 0.00 | 51 | 1039.2 |
| 20260506183608 | 22 | 278 | 0.0 | 0.0 | 0.00 | 0.00 | 0.00 | 53 | 1039.5 |
| 20260506183104 | 22 | 284 | 0.0 | 0.0 | 0.00 | 0.00 | 0.00 | 52 | 1039.2 |
| 20260506182602 | 21 | 278 | 0.0 | 0.0 | 0.00 | 0.00 | 0.00 | 55 | 1039.5 |
| 20260506182059 | 21 | 280 | 0.0 | 0.0 | 0.00 | 0.00 | 0.00 | 55 | 1039.5 |
| 20260506181557 | 22 | 275 | 0.0 | 0.0 | 0.00 | 0.00 | 0.00 | 53 | 1039.5 |
| 20260506181053 | 22 | 286 | 0.0 | 0.0 | 0.00 | 0.00 | 0.00 | 53 | 1039.5 |
| 20260506180550 | 22 | 274 | 0.0 | 0.0 | 0.00 | 0.00 | 0.00 | 55 | 1039.8 |
| 20260506180047 | 22 | 269 | 0.0 | 0.0 | 0.00 | 0.00 | 0.00 | 53 | 1039.5 |
| 20260506175543 | 22 | 275 | 0.0 | 0.0 | 0.00 | 0.00 | 0.00 | 53 | 1039.8 |
| 20260506175039 | 21 | 277 | 0.0 | 0.0 | 0.00 | 0.00 | 0.00 | 57 | 1039.8 |
| 20260506174538 | 21 | 283 | 0.0 | 0.0 | 0.00 | 0.00 | 0.00 | 55 | 1039.5 |
| 20260506174034 | 21 | 274 | 0.0 | 0.0 | 0.00 | 0.00 | 0.00 | 58 | 1039.8 |
| 20260506173532 | 21 | 275 | 0.0 | 0.0 | 0.00 | 0.00 | 0.00 | 56 | 1039.8 |
| 20260506173028 | 22 | 278 | 0.0 | 0.0 | 0.00 | 0.00 | 0.00 | 56 | 1039.5 |
| 20260506172526 | 21 | 277 | 0.0 | 0.0 | 0.00 | 0.00 | 0.00 | 56 | 1039.5 |
| 20260506172022 | 21 | 277 | 0.0 | 0.0 | 0.00 | 0.00 | 0.00 | 58 | 1039.8 |
| 20260506171519 | 20 | 274 | 0.0 | 0.0 | 0.00 | 0.00 | 0.00 | 61 | 1039.5 |
| 20260506171011 | 19 | 274 | 0.0 | 0.0 | 0.00 | 0.00 | 0.00 | 63 | 1039.5 |
| 20260506170508 | 20 | 291 | 0.0 | 0.0 | 0.00 | 0.00 | 0.00 | 62 | 1039.5 |
| 20260506170005 | 20 | 274 | 0.0 | 0.0 | 0.00 | 0.00 | 0.00 | 63 | 1039.5 |
| 20260506165504 | 20 | 277 | 0.0 | 0.0 | 0.00 | 0.00 | 0.00 | 63 | 1039.5 |
| 20260506164954 | 20 | 276 | 0.0 | 0.0 | 0.00 | 0.00 | 0.00 | 62 | 1039.5 |
| 20260506164451 | 20 | 277 | 0.0 | 0.0 | 0.00 | 0.00 | 0.00 | 63 | 1039.5 |
| 20260506163949 | 18 | 276 | 0.0 | 0.0 | 0.00 | 0.00 | 0.00 | 67 | 1039.8 |
| 20260506163444 | 17 | 277 | 0.0 | 0.0 | 0.00 | 0.00 | 0.00 | 69 | 1039.8 |
| 20260506162938 | 16 | 276 | 0.0 | 0.0 | 0.00 | 0.00 | 0.00 | 74 | 1039.5 |
| 20260506162436 | 16 | 276 | 0.0 | 0.0 | 0.00 | 0.00 | 0.00 | 76 | 1039.5 |
| 20260506161934 | 16 | 272 | 0.0 | 0.0 | 0.00 | 0.00 | 0.00 | 75 | 1039.5 |
| 20260506161432 | 16 | 276 | 0.0 | 0.0 | 0.00 | 0.00 | 0.00 | 75 | 1039.8 |
| 20260506160929 | 16 | 266 | 0.0 | 0.0 | 0.00 | 0.00 | 0.00 | 75 | 1039.8 |
| 20260506160426 | 16 | 277 | 0.0 | 0.0 | 0.00 | 0.00 | 0.00 | 75 | 1039.5 |
| 20260506155923 | 16 | 278 | 0.0 | 0.0 | 0.00 | 0.00 | 0.00 | 75 | 1039.5 |
| 20260506155420 | 16 | 269 | 0.0 | 0.0 | 0.00 | 0.00 | 0.00 | 75 | 1039.5 |
| 20260506153542 | 15 | 277 | 0.0 | 0.0 | 0.00 | 0.00 | 0.00 | 78 | 1039.8 |
| 20260506153040 | 15 | 276 | 0.0 | 0.0 | 0.00 | 0.00 | 0.00 | 80 | 1039.2 |
| 20260506152537 | 15 | 283 | 0.0 | 0.0 | 0.00 | 0.00 | 0.00 | 80 | 1039.8 |
| 20260506152035 | 14 | 277 | 0.0 | 0.0 | 0.00 | 0.00 | 0.00 | 80 | 1039.8 |
| 20260506151532 | 13 | 271 | 0.0 | 0.0 | 0.00 | 0.00 | 0.00 | 79 | 1039.8 |
| 20260506151030 | 13 | 233 | 0.0 | 0.0 | 0.00 | 0.00 | 0.00 | 79 | 1039.8 |
| 20260506150526 | 13 | 276 | 0.0 | 0.0 | 0.00 | 0.00 | 0.00 | 81 | 1039.8 |
| 20260506150023 | 13 | 268 | 0.0 | 0.0 | 0.00 | 0.00 | 0.00 | 80 | 1039.5 |
| 20260506145519 | 13 | 289 | 0.0 | 0.0 | 0.00 | 0.00 | 0.00 | 80 | 1039.8 |
| 20260506145017 | 12 | 276 | 0.0 | 0.0 | 0.00 | 0.00 | 0.00 | 79 | 1039.5 |
| 20260506144513 | 12 | 273 | 0.0 | 0.0 | 0.00 | 0.00 | 0.00 | 79 | 1039.8 |
| 20260506144011 | 12 | 298 | 0.0 | 0.0 | 0.00 | 0.00 | 0.00 | 80 | 1039.8 |
| 20260506143509 | 12 | 298 | 0.0 | 0.0 | 0.00 | 0.00 | 0.00 | 80 | 1039.8 |
| 20260506143007 | 12 | 273 | 0.0 | 0.0 | 0.00 | 0.00 | 0.00 | 81 | 1039.5 |
| 20260506142504 | 12 | 300 | 0.0 | 0.0 | 0.00 | 0.00 | 0.00 | 81 | 1039.8 |
| 20260506142002 | 12 | 1 | 0.0 | 0.0 | 0.00 | 0.00 | 0.00 | 81 | 1039.5 |
| 20260506141500 | 11 | 274 | 0.0 | 0.0 | 0.00 | 0.00 | 0.00 | 82 | 1039.8 |
| 20260506140958 | 11 | 312 | 0.0 | 0.0 | 0.00 | 0.00 | 0.00 | 82 | 1039.2 |
| 20260506140455 | 11 | 292 | 0.0 | 0.0 | 0.00 | 0.00 | 0.00 | 81 | 1039.5 |
| 20260506135952 | 11 | 285 | 0.0 | 0.0 | 0.00 | 0.00 | 0.00 | 81 | 1039.2 |
| 20260506135449 | 11 | 287 | 0.0 | 0.0 | 0.00 | 0.00 | 0.00 | 82 | 1039.5 |
| 20260506134944 | 11 | 290 | 0.0 | 0.0 | 0.00 | 0.00 | 0.00 | 82 | 1039.2 |
| 20260506134441 | 11 | 273 | 0.0 | 0.0 | 0.00 | 0.00 | 0.00 | 83 | 1039.2 |
| 20260506133938 | 11 | 275 | 0.0 | 0.0 | 0.00 | 0.00 | 0.00 | 83 | 1039.2 |
| 20260506133435 | 11 | 279 | 0.0 | 0.0 | 0.00 | 0.00 | 0.00 | 83 | 1039.2 |
| 20260506132931 | 11 | 275 | 0.0 | 0.0 | 0.00 | 0.00 | 0.00 | 83 | 1039.2 |
| 20260506132429 | 11 | 305 | 0.0 | 0.0 | 0.00 | 0.00 | 0.00 | 83 | 1039.2 |
| 20260506131926 | 11 | 282 | 0.0 | 0.0 | 0.00 | 0.00 | 0.00 | 83 | 1039.2 |
| 20260506131423 | 10 | 327 | 0.0 | 0.0 | 0.00 | 0.00 | 0.00 | 84 | 1039.2 |
| 20260506130920 | 10 | 293 | 0.0 | 0.0 | 0.00 | 0.00 | 0.00 | 85 | 1039.2 |
| 20260506130416 | 10 | 282 | 0.0 | 0.0 | 0.00 | 0.00 | 0.00 | 86 | 1039.2 |
| 20260506125914 | 10 | 277 | 0.0 | 0.0 | 0.00 | 0.00 | 0.00 | 86 | 1039.2 |
| 20260506125412 | 10 | 277 | 0.0 | 0.0 | 0.00 | 0.00 | 0.00 | 85 | 1038.8 |
| 20260506124910 | 10 | 277 | 0.0 | 0.0 | 0.00 | 0.00 | 0.00 | 84 | 1038.8 |
| 20260506124407 | 10 | 277 | 0.0 | 0.0 | 0.00 | 0.00 | 0.00 | 84 | 1038.8 |
| 20260506123905 | 10 | 277 | 0.0 | 0.0 | 0.00 | 0.00 | 0.00 | 84 | 1039.2 |
| 20260506123403 | 11 | 278 | 0.0 | 0.0 | 0.00 | 0.00 | 0.00 | 83 | 1038.8 |
| 20260506122900 | 11 | 277 | 0.0 | 0.0 | 0.00 | 0.00 | 0.00 | 83 | 1038.8 |
| 20260506122356 | 11 | 290 | 0.0 | 0.0 | 0.00 | 0.00 | 0.00 | 83 | 1038.8 |
| 20260506121855 | 11 | 280 | 0.0 | 0.0 | 0.00 | 0.00 | 0.00 | 83 | 1038.5 |
| 20260506121352 | 11 | 312 | 0.0 | 0.0 | 0.00 | 0.00 | 0.00 | 83 | 1038.5 |
| 20260506120848 | 11 | 341 | 0.0 | 0.0 | 0.00 | 0.00 | 0.00 | 82 | 1038.5 |
| 20260506120346 | 11 | 303 | 0.0 | 0.0 | 0.00 | 0.00 | 0.00 | 83 | 1038.5 |
| 20260506115843 | 11 | 304 | 0.0 | 0.0 | 0.00 | 0.00 | 0.00 | 83 | 1038.5 |
| 20260506115342 | 11 | 288 | 0.0 | 0.0 | 0.00 | 0.00 | 0.00 | 82 | 1038.1 |
| 20260506114839 | 11 | 291 | 0.0 | 0.0 | 0.00 | 0.00 | 0.00 | 82 | 1038.5 |
| 20260506114337 | 11 | 286 | 0.0 | 0.0 | 0.00 | 0.00 | 0.00 | 82 | 1038.5 |
| 20260506113835 | 11 | 277 | 0.0 | 0.0 | 0.00 | 0.00 | 0.00 | 83 | 1038.1 |
| 20260506113332 | 11 | 277 | 0.0 | 0.0 | 0.00 | 0.00 | 0.00 | 83 | 1038.5 |
| 20260506112829 | 11 | 277 | 0.0 | 0.0 | 0.00 | 0.00 | 0.00 | 83 | 1038.5 |
| 20260506112326 | 11 | 285 | 0.0 | 0.0 | 0.00 | 0.00 | 0.00 | 83 | 1038.5 |
| 20260506111823 | 11 | 283 | 0.0 | 0.0 | 0.00 | 0.00 | 0.00 | 82 | 1038.5 |
| 20260506111322 | 11 | 277 | 0.0 | 0.0 | 0.00 | 0.00 | 0.00 | 82 | 1038.1 |
| 20260506110819 | 11 | 277 | 0.0 | 0.0 | 0.00 | 0.00 | 0.00 | 82 | 1038.5 |
| 20260506110316 | 11 | 282 | 0.0 | 0.0 | 0.00 | 0.00 | 0.00 | 81 | 1038.5 |
| 20260506105812 | 11 | 282 | 0.0 | 0.0 | 0.00 | 0.00 | 0.00 | 81 | 1038.1 |
| 20260506105309 | 11 | 283 | 0.0 | 0.0 | 0.00 | 0.00 | 0.00 | 81 | 1038.5 |
| 20260506104807 | 11 | 296 | 0.0 | 0.0 | 0.00 | 0.00 | 0.00 | 81 | 1038.5 |
| 20260506104304 | 11 | 281 | 0.0 | 0.0 | 0.00 | 0.00 | 0.00 | 81 | 1038.1 |
| 20260506103802 | 11 | 291 | 0.0 | 0.0 | 0.00 | 0.00 | 0.00 | 81 | 1038.5 |
| 20260506103259 | 11 | 259 | 0.0 | 0.0 | 0.00 | 0.00 | 0.00 | 81 | 1038.1 |
| 20260506102756 | 11 | 258 | 0.0 | 0.0 | 0.00 | 0.00 | 0.00 | 82 | 1038.1 |
| 20260506102254 | 11 | 276 | 0.0 | 0.0 | 0.00 | 0.00 | 0.00 | 82 | 1038.1 |
| 20260506101751 | 11 | 276 | 0.0 | 0.0 | 0.00 | 0.00 | 0.00 | 82 | 1038.5 |
| 20260506101247 | 11 | 276 | 0.0 | 0.0 | 0.00 | 0.00 | 0.00 | 81 | 1038.5 |
| 20260506100745 | 11 | 274 | 0.0 | 0.0 | 0.00 | 0.00 | 0.00 | 80 | 1038.5 |
| 20260506100243 | 12 | 272 | 0.0 | 0.0 | 0.00 | 0.00 | 0.00 | 79 | 1038.5 |
| 20260506095742 | 12 | 273 | 0.0 | 0.0 | 0.00 | 0.00 | 0.00 | 79 | 1038.5 |
| 20260506095238 | 12 | 275 | 0.0 | 0.0 | 0.00 | 0.00 | 0.00 | 79 | 1038.5 |
| 20260506094735 | 12 | 272 | 0.0 | 0.0 | 0.00 | 0.00 | 0.00 | 79 | 1038.5 |
| 20260506094233 | 12 | 273 | 0.0 | 0.0 | 0.00 | 0.00 | 0.00 | 79 | 1038.8 |
| 20260506093732 | 12 | 275 | 0.0 | 0.0 | 0.00 | 0.00 | 0.00 | 80 | 1038.5 |
| 20260506093228 | 12 | 273 | 0.0 | 0.0 | 0.00 | 0.00 | 0.00 | 80 | 1038.5 |
| 20260506092726 | 12 | 273 | 0.0 | 0.0 | 0.00 | 0.00 | 0.00 | 79 | 1038.5 |
| 20260506092224 | 12 | 275 | 0.0 | 0.0 | 0.00 | 0.00 | 0.00 | 79 | 1038.1 |
| 20260506091721 | 12 | 275 | 0.0 | 0.0 | 0.00 | 0.00 | 0.00 | 79 | 1038.5 |
| 20260506091218 | 12 | 275 | 0.0 | 0.0 | 0.00 | 0.00 | 0.00 | 79 | 1038.5 |
| 20260506090716 | 12 | 276 | 0.0 | 0.0 | 0.00 | 0.00 | 0.00 | 79 | 1038.8 |
| 20260506090212 | 12 | 279 | 0.0 | 0.0 | 0.00 | 0.00 | 0.00 | 78 | 1038.8 |
| 20260506085710 | 12 | 278 | 0.0 | 0.0 | 0.00 | 0.00 | 0.00 | 78 | 1038.5 |
| 20260506085205 | 12 | 272 | 0.0 | 0.0 | 0.00 | 0.00 | 0.00 | 79 | 1038.5 |
| 20260506084702 | 12 | 285 | 0.0 | 0.0 | 0.00 | 0.00 | 0.00 | 79 | 1039.2 |
| 20260506084159 | 12 | 272 | 0.0 | 0.0 | 0.00 | 0.00 | 0.00 | 80 | 1039.2 |
| 20260506083655 | 12 | 278 | 0.0 | 0.0 | 0.00 | 0.00 | 0.00 | 81 | 1038.8 |
| 20260506083154 | 12 | 276 | 0.0 | 0.0 | 0.00 | 0.00 | 0.00 | 81 | 1038.8 |
| 20260506082650 | 12 | 275 | 0.0 | 0.0 | 0.00 | 0.00 | 0.00 | 81 | 1038.8 |
| 20260506082145 | 12 | 272 | 0.0 | 0.0 | 0.00 | 0.00 | 0.00 | 81 | 1038.8 |
| 20260506081643 | 12 | 276 | 0.0 | 0.0 | 0.00 | 0.00 | 0.00 | 81 | 1038.8 |
| 20260506081141 | 12 | 275 | 0.0 | 0.0 | 0.00 | 0.00 | 0.00 | 81 | 1038.8 |
| 20260506080638 | 12 | 274 | 0.0 | 0.0 | 0.00 | 0.00 | 0.00 | 80 | 1038.8 |
| 20260506080135 | 12 | 279 | 0.0 | 0.0 | 0.00 | 0.00 | 0.00 | 80 | 1039.2 |
| 20260506073119 | 12 | 273 | 0.0 | 0.0 | 0.00 | 0.00 | 0.00 | 82 | 1039.2 |
| 20260506072615 | 12 | 273 | 0.0 | 0.0 | 0.00 | 0.00 | 0.00 | 82 | 1039.2 |
| 20260506072114 | 12 | 273 | 0.0 | 0.0 | 0.00 | 0.00 | 0.00 | 82 | 1038.8 |
| 20260506071611 | 12 | 274 | 0.0 | 0.0 | 0.00 | 0.00 | 0.00 | 82 | 1038.8 |
| 20260506071108 | 12 | 273 | 0.0 | 0.0 | 0.00 | 0.00 | 0.00 | 81 | 1038.8 |
| 20260506070605 | 12 | 276 | 0.0 | 0.0 | 0.00 | 0.00 | 0.00 | 82 | 1038.8 |
| 20260506062039 | 12 | 273 | 0.0 | 0.0 | 0.00 | 0.00 | 0.00 | 81 | 1038.1 |
| 20260506061535 | 12 | 273 | 0.0 | 0.0 | 0.00 | 0.00 | 0.00 | 82 | 1038.1 |
| 20260506061033 | 12 | 274 | 0.0 | 0.0 | 0.00 | 0.00 | 0.00 | 82 | 1038.1 |
| 20260506060531 | 13 | 273 | 0.0 | 0.0 | 0.00 | 0.00 | 0.00 | 82 | 1038.5 |
| 20260506051000 | 13 | 274 | 0.0 | 0.0 | 0.00 | 0.00 | 0.00 | 81 | 1037.8 |
| 20260506050458 | 13 | 273 | 0.0 | 0.0 | 0.00 | 0.00 | 0.00 | 81 | 1038.1 |
| 20260506044948 | 13 | 273 | 0.0 | 0.0 | 0.00 | 0.00 | 0.00 | 80 | 1037.8 |
| 20260506044446 | 13 | 273 | 0.0 | 0.0 | 0.00 | 0.00 | 0.00 | 80 | 1037.5 |
| 20260506043943 | 13 | 273 | 0.0 | 0.0 | 0.00 | 0.00 | 0.00 | 79 | 1037.5 |
| 20260506043440 | 13 | 273 | 0.0 | 0.0 | 0.00 | 0.00 | 0.00 | 78 | 1037.5 |
| 20260506042938 | 13 | 277 | 0.0 | 0.0 | 0.00 | 0.00 | 0.00 | 78 | 1037.5 |
| 20260506042437 | 13 | 277 | 0.0 | 0.0 | 0.00 | 0.00 | 0.00 | 77 | 1037.1 |
| 20260506041934 | 13 | 277 | 0.0 | 0.0 | 0.00 | 0.00 | 0.00 | 77 | 1037.5 |
| 20260506041432 | 13 | 277 | 0.0 | 0.0 | 0.00 | 0.00 | 0.00 | 76 | 1037.1 |
| 20260506040929 | 13 | 277 | 0.0 | 0.0 | 0.00 | 0.00 | 0.00 | 75 | 1037.1 |
| 20260506040427 | 13 | 279 | 0.0 | 0.0 | 0.00 | 0.00 | 0.00 | 75 | 1037.1 |
| 20260506035922 | 13 | 280 | 0.0 | 0.0 | 0.00 | 0.00 | 0.00 | 75 | 1037.1 |
| 20260506035420 | 14 | 282 | 0.0 | 0.0 | 0.00 | 0.00 | 0.00 | 74 | 1037.1 |
| 20260506034917 | 14 | 277 | 0.0 | 0.0 | 0.00 | 0.00 | 0.00 | 74 | 1037.1 |
| 20260506034414 | 14 | 277 | 0.0 | 0.0 | 0.00 | 0.00 | 0.00 | 73 | 1036.8 |
| 20260506033911 | 14 | 277 | 0.0 | 0.0 | 0.00 | 0.00 | 0.00 | 73 | 1036.8 |
| 20260506033408 | 14 | 278 | 0.0 | 0.0 | 0.00 | 0.00 | 0.00 | 72 | 1036.8 |
| 20260506032905 | 15 | 279 | 0.0 | 0.0 | 0.00 | 0.00 | 0.00 | 72 | 1036.8 |
| 20260506032402 | 15 | 280 | 0.0 | 0.0 | 0.00 | 0.00 | 0.00 | 71 | 1036.4 |
| 20260506031859 | 15 | 282 | 0.0 | 0.0 | 0.00 | 0.00 | 0.00 | 71 | 1036.8 |
| 20260506031356 | 15 | 271 | 0.0 | 0.0 | 0.00 | 0.00 | 0.00 | 70 | 1036.4 |
| 20260506030854 | 15 | 280 | 0.0 | 0.0 | 0.00 | 0.00 | 0.00 | 70 | 1036.4 |
| 20260506030352 | 15 | 280 | 0.0 | 0.0 | 0.00 | 0.00 | 0.00 | 69 | 1036.4 |
| 20260506025848 | 15 | 278 | 0.0 | 0.0 | 0.00 | 0.00 | 0.00 | 70 | 1036.1 |
| 20260506025344 | 15 | 276 | 0.0 | 0.0 | 0.00 | 0.00 | 0.00 | 69 | 1036.1 |
| 20260506024842 | 15 | 276 | 0.0 | 0.0 | 0.00 | 0.00 | 0.00 | 69 | 1036.1 |
| 20260506024338 | 15 | 277 | 0.0 | 0.0 | 0.00 | 0.00 | 0.00 | 69 | 1035.8 |
| 20260506023835 | 15 | 277 | 0.0 | 0.0 | 0.00 | 0.00 | 0.00 | 69 | 1035.8 |